#timestamp,LO_Frequency,Hit,StdDev 
1536843615.3,286046999.7,N
1536843635.1,286047000.9,N
1536843655.9,286047000.0,N
1536843675.7,286047002.8,N
1536843695.6,286047002.7,N
1536843715.4,286047002.5,N
1536843735.2,286047004.1,N
1536843755.1,286047003.5,N
1536843756.0,286047003.5,N
1536843775.8,286047001.4,N
1536843795.6,286046999.7,N
1536843815.5,286047001.3,N
1536843835.3,286047003.3,N
1536843855.2,286047001.9,N
1536843875.9,286047002.8,N
1536843895.7,286047001.1,N
1536843915.6,286047000.5,N
1536843935.4,286047002.3,N
1536843955.2,286046999.8,N
1536843975.1,286047001.0,N
1536843976.0,286047001.0,N
1536843995.8,286047001.9,N
1536844015.7,286047004.2,Y
1536844035.5,286046999.8,P
1536844055.3,286047000.3,N
1536844075.2,286047000.9,N
1536844095.0,286047000.5,N
1536844095.9,286047000.5,N
1536844115.7,286047000.3,N
1536844135.6,286047004.4,Y
1536844155.4,286047000.0,P
1536844175.3,286046998.1,P
1536844195.1,286047000.9,N
1536844196.0,286047000.9,N
1536844215.8,286047001.1,N
1536844235.7,286047002.7,N
1536844255.5,286047002.1,N
1536844275.3,286047002.7,N
1536844295.2,286047000.3,N
1536844315.0,286047000.5,N
1536844315.9,286047000.5,N
1536844335.8,286047000.0,N
1536844355.6,286047000.4,N
1536844375.4,286047000.9,N
1536844395.3,286047000.4,N
1536844415.1,286047000.3,N
1536844435.8,286046999.1,N
1536844455.7,286047000.2,N
1536844475.5,286047000.2,N
1536844495.4,286047000.7,N
1536844515.2,286047002.6,N
1536844535.0,286047001.9,N
1536844535.9,286047001.9,N
1536844555.8,286047002.0,N
1536844575.6,286047000.4,N
1536844595.4,286047000.5,N
1536844615.3,286047000.9,N
1536844635.1,286047000.9,N
1536844655.9,286047001.1,N
1536844675.7,286047002.8,N
1536844695.5,286047001.5,N
1536844715.4,286047001.5,N
1536844735.2,286047004.1,Y
1536844755.0,286047002.3,P
1536844755.9,286047002.3,P
1536844775.8,286047002.5,P
1536844795.6,286047000.3,N
1536844815.4,286047002.5,N
1536844835.3,286047000.0,N
1536844855.1,286047001.6,N
1536844875.9,286047001.4,N
1536844895.7,286047002.6,N
1536844915.5,286047003.1,Y
1536844935.4,286047001.9,P
1536844955.2,286047002.4,P
1536844975.0,286046999.8,N
1536844975.9,286046999.8,N
1536844995.8,286047002.3,N
1536845015.6,286046998.2,N
1536845035.5,286046999.4,N
1536845055.3,286046999.7,N
1536845075.1,286047000.7,N
1536845095.9,286047002.4,N
1536845115.7,286047000.5,N
1536845135.5,286047000.9,N
1536845155.4,286047002.6,N
1536845175.2,286047000.1,N
1536845195.1,286047002.4,N
1536845196.0,286047002.4,N
1536845215.8,286047004.3,Y
1536845235.6,286047002.0,P
1536845255.5,286047003.9,P
1536845275.3,286046999.8,N
1536845295.1,286047000.1,N
1536845315.9,286047000.2,N
1536845335.7,286047000.6,N
1536845355.5,286047000.4,N
1536845375.4,286047000.4,N
1536845395.2,286047000.3,N
1536845415.1,286047002.6,N
1536845416.0,286047002.6,N
1536845435.8,286047001.6,N
1536845455.6,286047003.6,N
1536845475.5,286047001.5,N
1536845495.3,286047001.4,N
1536845515.1,286047002.0,N
1536845535.9,286047002.5,N
1536845555.7,286047003.0,N
1536845575.6,286047003.9,Y
1536845595.4,286046998.3,P
1536845615.2,286047000.7,N
1536845635.1,286047001.9,N
1536845636.0,286047001.9,N
1536845655.8,286047002.8,N
1536845675.6,286047002.2,N
1536845695.5,286047003.4,N
1536845715.3,286047002.5,N
1536845735.2,286047000.5,N
1536845755.9,286046996.6,N
1536845775.7,286046999.1,N
1536845795.6,286046998.2,N
1536845815.4,286047000.4,N
1536845835.2,286046999.7,N
1536845855.1,286046996.9,N
1536845856.0,286046996.9,N
1536845875.8,286046996.6,N
1536845895.7,286046997.4,N
1536845915.5,286046998.3,N
1536845935.3,286046999.5,N
1536845955.2,286047000.9,N
1536845975.9,286046999.2,N
1536845995.7,286046999.3,N
1536846015.6,286046998.8,N
1536846035.4,286046998.9,N
1536846055.2,286046998.3,N
1536846075.1,286046998.1,N
1536846076.0,286046998.1,N
1536846095.8,286047000.7,N
1536846115.7,286047001.1,N
1536846135.5,286047001.0,N
1536846155.3,286047002.8,N
1536846175.2,286047000.6,N
1536846195.0,286047000.2,N
1536846195.9,286047000.2,N
1536846215.7,286047002.8,N
1536846235.6,286046999.7,N
1536846255.4,286047002.2,N
1536846275.3,286047002.7,N
1536846295.1,286047001.0,N
1536846296.0,286047001.0,N
1536846315.8,286046998.4,N
1536846335.7,286047002.4,N
1536846355.5,286047001.9,N
1536846375.3,286047003.1,N
1536846395.2,286047007.6,Y
1536846415.0,286047005.0,P
1536846415.9,286047005.0,N
1536846435.8,286047006.0,N
1536846455.6,286047004.4,N
1536846475.4,286047002.5,N
1536846495.3,286047002.1,N
1536846515.1,286047002.4,N
1536846535.8,286046999.8,N
1536846555.7,286047001.9,N
1536846575.5,286047003.4,N
1536846595.4,286047005.8,Y
1536846615.2,286046998.4,P
1536846635.0,286046998.0,N
1536846635.9,286046998.0,N
1536846655.8,286046994.9,N
1536846675.6,286046995.3,N
1536846695.4,286046996.5,N
1536846715.3,286046996.5,N
1536846735.1,286046999.2,N
1536846755.9,286046997.1,N
1536846775.7,286046999.2,N
1536846795.5,286046999.5,N
1536846815.4,286046996.6,N
1536846835.2,286046998.2,N
1536846855.0,286047000.8,N
1536846855.9,286047000.8,N
1536846875.8,286046998.4,N
1536846895.6,286046998.6,N
1536846915.5,286046999.5,N
1536846935.3,286046994.9,N
1536846955.1,286046996.6,N
1536846975.9,286046999.3,N
1536846995.7,286046999.3,N
1536847015.5,286047000.7,N
1536847035.4,286047002.4,N
1536847055.2,286047002.7,N
1536847075.1,286047000.9,N
1536847076.0,286047000.9,N
1536847095.8,286046998.2,N
1536847115.6,286047001.1,N
1536847135.5,286047000.3,N
1536847155.3,286047001.2,N
1536847175.2,286047000.5,N
1536847195.9,286046999.9,N
